Previsão horária em Cerlevskiy Unkor

Hoje, 27 Julho, Terça-feira

Tempo Temperatura Precipitação Vento Pressão Humidade
00:00 +20°C° 0 mm 1 m/s 753 mmHg 60%
01:00 +20°C° 0 mm 1 m/s 753 mmHg 60%
02:00 +18°C° 0 mm 2 m/s 753 mmHg 60%
03:00 +18°C° 0 mm 2 m/s 753 mmHg 60%
04:00 +18°C° 0 mm 2 m/s 753 mmHg 60%
05:00 +19°C° 0 mm 2 m/s 753 mmHg 61%
06:00 +20°C° 0 mm 1 m/s 753 mmHg 62%
07:00 +21°C° 0 mm 1 m/s 753 mmHg 58%
08:00 +23°C° 0 mm 1 m/s 753 mmHg 54%
09:00 +24°C° 0 mm 2 m/s 753 mmHg 50%
10:00 +26°C° 0 mm 2 m/s 752 mmHg 46%
11:00 +27°C° 0 mm 2 m/s 752 mmHg 41%
12:00 +29°C° 0 mm 2 m/s 752 mmHg 36%
13:00 +29°C° 0 mm 2 m/s 752 mmHg 36%
14:00 +29°C° 0 mm 1 m/s 751 mmHg 36%
15:00 +29°C° 0 mm 1 m/s 751 mmHg 37%
16:00 +28°C° 0 mm 1 m/s 751 mmHg 40%
17:00 +28°C° 0 mm 1 m/s 750 mmHg 44%
18:00 +27°C° 0 mm 1 m/s 750 mmHg 47%
19:00 +25°C° 0 mm 2 m/s 750 mmHg 54%
20:00 +23°C° 0 mm 2 m/s 750 mmHg 61%
21:00 +19°C° 0 mm 2 m/s 750 mmHg 68%
22:00 +19°C° 0 mm 2 m/s 750 mmHg 70%
23:00 +18°C° 0 mm 2 m/s 750 mmHg 73%

Amanhã, 28 Julho, Quarta-feira

Tempo Temperatura Precipitação Vento Pressão Humidade
00:00 +17°C° 0 mm 2 m/s 750 mmHg 76%
01:00 +16°C° 0 mm 2 m/s 750 mmHg 77%
02:00 +16°C° 0 mm 2 m/s 750 mmHg 78%
03:00 +16°C° 0 mm 2 m/s 750 mmHg 80%
04:00 +16°C° 0 mm 1 m/s 750 mmHg 79%
05:00 +18°C° 0 mm 1 m/s 750 mmHg 78%
06:00 +18°C° 0 mm 1 m/s 750 mmHg 78%
07:00 +21°C° 0 mm 1 m/s 750 mmHg 71%
08:00 +23°C° 0 mm 1 m/s 749 mmHg 63%
09:00 +25°C° 0 mm 1 m/s 749 mmHg 56%
10:00 +27°C° 0 mm 1 m/s 749 mmHg 51%
11:00 +28°C° 0 mm 2 m/s 749 mmHg 46%
12:00 +29°C° 0 mm 2 m/s 749 mmHg 41%
13:00 +29°C° 0 mm 2 m/s 748 mmHg 41%
14:00 +29°C° 0 mm 2 m/s 748 mmHg 41%
15:00 +29°C° 0 mm 2 m/s 747 mmHg 42%
16:00 +27°C° 0.3 mm 3 m/s 747 mmHg 54%
17:00 +25°C° 0.3 mm 4 m/s 747 mmHg 66%
18:00 +21°C° 0.3 mm 5 m/s 747 mmHg 78%
19:00 +20°C° 0.2 mm 4 m/s 747 mmHg 80%
20:00 +20°C° 0.2 mm 3 m/s 747 mmHg 83%
21:00 +19°C° 0.2 mm 2 m/s 746 mmHg 85%
22:00 +19°C° 0 mm 2 m/s 746 mmHg 86%
23:00 +18°C° 0 mm 2 m/s 746 mmHg 86%

Depois de amanhã, 29 Julho, Quinta-feira

Tempo Temperatura Precipitação Vento Pressão Humidade
00:00 +18°C° 0 mm 2 m/s 746 mmHg 87%
01:00 +18°C° 0 mm 3 m/s 745 mmHg 86%
02:00 +19°C° 0 mm 3 m/s 745 mmHg 85%
03:00 +19°C° 0 mm 3 m/s 744 mmHg 84%
04:00 +19°C° 0.2 mm 3 m/s 744 mmHg 84%
05:00 +19°C° 0.2 mm 4 m/s 743 mmHg 85%
06:00 +19°C° 0.2 mm 4 m/s 743 mmHg 85%
07:00 +20°C° 0 mm 5 m/s 742 mmHg 81%
08:00 +22°C° 0 mm 5 m/s 742 mmHg 78%
09:00 +23°C° 0 mm 6 m/s 742 mmHg 74%
10:00 +23°C° 0 mm 5 m/s 742 mmHg 74%
11:00 +23°C° 0 mm 5 m/s 742 mmHg 74%
12:00 +23°C° 0 mm 5 m/s 742 mmHg 73%
13:00 +25°C° 0 mm 5 m/s 742 mmHg 70%
14:00 +25°C° 0 mm 5 m/s 742 mmHg 67%
15:00 +26°C° 0 mm 5 m/s 742 mmHg 63%
16:00 +26°C° 0.1 mm 5 m/s 742 mmHg 64%
17:00 +26°C° 0.1 mm 4 m/s 742 mmHg 64%
18:00 +26°C° 0.1 mm 4 m/s 741 mmHg 64%
19:00 +25°C° 0 mm 3 m/s 741 mmHg 71%
20:00 +22°C° 0 mm 3 m/s 741 mmHg 77%
21:00 +21°C° 0 mm 2 m/s 741 mmHg 83%
22:00 +20°C° 0 mm 2 m/s 742 mmHg 83%
23:00 +20°C° 0 mm 3 m/s 742 mmHg 83%

30 Julho, Sexta-feira

Tempo Temperatura Precipitação Vento Pressão Humidade
00:00 +20°C° 0 mm 3 m/s 742 mmHg 84%
01:00 +20°C° 0 mm 2 m/s 742 mmHg 80%
02:00 +20°C° 0 mm 2 m/s 742 mmHg 77%
03:00 +20°C° 0 mm 2 m/s 742 mmHg 74%
04:00 +20°C° 0.1 mm 2 m/s 742 mmHg 76%
05:00 +20°C° 0.1 mm 2 m/s 742 mmHg 77%
06:00 +20°C° 0.1 mm 2 m/s 742 mmHg 79%
07:00 +23°C° 0 mm 2 m/s 742 mmHg 72%
08:00 +25°C° 0 mm 2 m/s 742 mmHg 64%
09:00 +27°C° 0 mm 2 m/s 742 mmHg 56%
10:00 +28°C° 0 mm 2 m/s 742 mmHg 51%
11:00 +29°C° 0 mm 2 m/s 742 mmHg 46%
12:00 +31°C° 0 mm 3 m/s 742 mmHg 41%
13:00 +30°C° 0 mm 3 m/s 742 mmHg 43%
14:00 +30°C° 0 mm 2 m/s 742 mmHg 45%
15:00 +29°C° 0 mm 2 m/s 742 mmHg 48%
16:00 +29°C° 0 mm 2 m/s 742 mmHg 52%
17:00 +28°C° 0 mm 2 m/s 742 mmHg 56%
18:00 +27°C° 0 mm 2 m/s 742 mmHg 60%
19:00 +26°C° 0 mm 2 m/s 742 mmHg 62%
20:00 +25°C° 0 mm 2 m/s 742 mmHg 64%
21:00 +25°C° 0 mm 2 m/s 742 mmHg 66%
22:00 +24°C° 0 mm 2 m/s 742 mmHg 68%
23:00 +24°C° 0 mm 2 m/s 742 mmHg 70%

31 Julho, Sábado

Tempo Temperatura Precipitação Vento Pressão Humidade
00:00 +23°C° 0 mm 2 m/s 742 mmHg 72%
01:00 +23°C° 0.1 mm 2 m/s 742 mmHg 73%
02:00 +21°C° 0.1 mm 2 m/s 742 mmHg 74%
03:00 +21°C° 0.1 mm 2 m/s 742 mmHg 75%
04:00 +21°C° 0 mm 2 m/s 742 mmHg 76%
05:00 +20°C° 0 mm 2 m/s 743 mmHg 76%
06:00 +20°C° 0 mm 2 m/s 743 mmHg 77%
07:00 +23°C° 0 mm 2 m/s 743 mmHg 67%
08:00 +25°C° 0 mm 3 m/s 743 mmHg 57%
09:00 +27°C° 0 mm 3 m/s 743 mmHg 47%
10:00 +29°C° 0 mm 3 m/s 743 mmHg 42%
11:00 +30°C° 0 mm 4 m/s 743 mmHg 37%
12:00 +32°C° 0 mm 4 m/s 743 mmHg 32%
13:00 +33°C° 0 mm 5 m/s 743 mmHg 31%
14:00 +33°C° 0 mm 5 m/s 742 mmHg 30%
15:00 +33°C° 0 mm 5 m/s 742 mmHg 30%
16:00 +33°C° 0 mm 5 m/s 742 mmHg 33%
17:00 +32°C° 0 mm 4 m/s 742 mmHg 37%
18:00 +30°C° 0 mm 3 m/s 742 mmHg 40%
19:00 +28°C° 0 mm 3 m/s 742 mmHg 45%
20:00 +27°C° 0 mm 2 m/s 742 mmHg 49%
21:00 +25°C° 0 mm 2 m/s 743 mmHg 54%
22:00 +24°C° 0 mm 2 m/s 743 mmHg 58%
23:00 +24°C° 0 mm 2 m/s 743 mmHg 62%

1 Agosto, Domingo

Tempo Temperatura Precipitação Vento Pressão Humidade
00:00 +23°C° 0 mm 2 m/s 743 mmHg 66%
01:00 +21°C° 0 mm 2 m/s 743 mmHg 68%
02:00 +21°C° 0 mm 2 m/s 743 mmHg 70%
03:00 +20°C° 0 mm 2 m/s 743 mmHg 72%
04:00 +21°C° 0 mm 2 m/s 743 mmHg 71%
05:00 +21°C° 0 mm 2 m/s 743 mmHg 70%
06:00 +21°C° 0 mm 2 m/s 743 mmHg 69%
07:00 +25°C° 0 mm 3 m/s 743 mmHg 61%
08:00 +27°C° 0 mm 4 m/s 743 mmHg 52%
09:00 +29°C° 0 mm 5 m/s 743 mmHg 44%
10:00 +30°C° 0 mm 5 m/s 742 mmHg 40%
11:00 +33°C° 0 mm 6 m/s 742 mmHg 35%
12:00 +35°C° 0 mm 7 m/s 741 mmHg 31%
13:00 +34°C° 0 mm 6 m/s 741 mmHg 34%
14:00 +33°C° 0 mm 6 m/s 741 mmHg 36%
15:00 +33°C° 0 mm 6 m/s 740 mmHg 39%
16:00 +32°C° 0.1 mm 5 m/s 740 mmHg 43%
17:00 +30°C° 0.1 mm 4 m/s 740 mmHg 48%
18:00 +30°C° 0.1 mm 4 m/s 740 mmHg 52%
19:00 +28°C° 0.2 mm 3 m/s 741 mmHg 61%
20:00 +26°C° 0.2 mm 2 m/s 741 mmHg 69%
21:00 +23°C° 0.2 mm 1 m/s 742 mmHg 78%
22:00 +23°C° 0 mm 1 m/s 742 mmHg 80%
23:00 +21°C° 0 mm 2 m/s 742 mmHg 83%
Mostrar mais

Necessitamos do seu Consentimento

A Meteoprog e os seus Fornecedores de Serviços podem armazenar e aceder a dados pessoais como cookies, identificadores do dispositivo ou outras tecnologias semelhantes existentes no seu dispositivo e processar estes dados para personalizar conteúdos e anúncios, assim como funcionalidades nas redes sociais e análise de tráfego.

  • Armazenar e/ou aceder a informações no seu dispositivo

    Os cookies, identificadores do dispositivo ou outras informações podem ser armazenados ou acedidos no seu dispositivo, para os fins acima indicados.

  • Anúncios e conteúdos personalizados, medição de anúncios e conteúdos, dados sobre o público-alvo e desenvolvimento de produtos

    Os anúncios e os conteúdos podem ser personalizados com base num perfil. Podem ser adicionados dados adicionais para uma maior personalização dos anúncios e dos conteúdos. A eficácia dos anúncios e dos conteúdos pode ser medida. Podem ser obtidas informações sobre o público que visualizou os anúncios e os conteúdos. Estes dados podem ser usados para desenvolver ou melhorar sistemas, softwares ou a experiência do utilizador.

Ao clicar em "Eu concordo”, permitirá o uso de cookies, identificadores do dispositivo e web beacons mencionados ou outras tecnologias semelhantes. As configurações do navegador do seu dispositivo podem ser alteradas.

Para certos fins, podem ser invocados interesses legítimos ao invés de consentimento. Pode ler mais informação sobre este assunto na nossa Política de Privacidade e Cookies.